* Astronomy

Members Login
Username 
 
Password 
    Remember Me  
Post Info TOPIC: Asteroid 2010 NV1


L

Posts: 131433
Date:
Asteroid 2010 NV1
Permalink  
 


Orbital elements:
2010 NV1
Epoch 2010 July 23.0 TT = JDT 2455400.5 MPC
M 0.29635 (2000.0) P Q
n 0.00095544 Peri. 111.83266 +0.76136707 +0.48046608
a 102.0942624 Node 136.81554 +0.01082484 -0.68073001
e 0.9088595 Incl. 140.50166 +0.64823067 -0.55295479
P 1030 H 10.3 G 0.15 U 5

MPEC 2010 - N54


__________________
Page 1 of 1  sorted by
 
Quick Reply

Please log in to post quick replies.



Create your own FREE Forum
Report Abuse
Powered by ActiveBoard